Weather History for Fort Knox, KY

Change the Weather History Date:

Monday, November 28, 2011

  Actual Average Record
Temperature  
Mean Temperature 46 °F -  
Max Temperature 50 °F 50 °F 69 °F (1998)
Min Temperature 41 °F 32 °F 14 °F (2013)
Degree Days  
Heating Degree Days 20    
Moisture  
Dew Point 44 °F    
Average Humidity 99    
Maximum Humidity 100    
Minimum Humidity 99    
Precipitation  
Precipitation 1.70 in - - ()
Sea Level Pressure  
Sea Level Pressure 29.81 in    
Wind  
Wind Speed 8 mph (NNE)    
Max Wind Speed 16 mph    
Max Gust Speed 18 mph    
Visibility 5 miles    
Events Rain    
Averages and records for this station are not official NWS values.
T = Trace of Precipitation, MM = Missing Value Source: NWS Daily Summary

Daily Weather History Graph

Daily Weather History Graph

Search for Another Location

Airport:

Trip Planner

Search our weather history database for the weather conditions in past years. The results will help you decide how hot, cold, wet, or windy it might be!

Date:

Astronomy

Nov. 28, 2011 Rise Set
Actual Time 7:37 AM EST 5:25 PM EST
Civil Twilight 7:08 AM EST 5:54 PM EST
Nautical Twilight 6:36 AM EST 6:26 PM EST
Astronomical Twilight 6:04 AM EST 6:58 PM EST
Moon 10:47 AM EST (11/28) 9:10 PM EST (11/28)
Length of Visible Light 10h 45m
Length of Day
9h 48m
Waxing Crescent, 15% of the Moon is Illuminated
Nov 28
Waxing Crescent
Dec 2
First Quarter
Dec 10
Full
Dec 17
Last Quarter
Dec 24
New

Hourly Weather History & Observations

Time (EST) Temp. Windchill Dew Point Humidity Pressure Visibility Wind Dir Wind Speed Gust Speed Precip Events Conditions
12:55 AM 41.4 °F 39.4 °F 41.2 °F 99% 29.97 in 6.0 mi North 3.5 mph - 0.09 in Rain Light Rain
1:55 AM 41.5 °F 38.6 °F 41.4 °F 99% 29.98 in 6.0 mi North 4.6 mph - 0.06 in Rain Light Rain
2:55 AM 41.7 °F 38.0 °F 41.5 °F 99% 29.98 in 6.0 mi North 5.8 mph - 0.07 in Rain Light Rain
3:55 AM 41.7 °F 36.1 °F 41.5 °F 99% 29.95 in 7.0 mi North 9.2 mph - 0.03 in Rain Light Rain
4:55 AM 41.5 °F 36.4 °F 41.4 °F 99% 29.94 in 7.0 mi North 8.1 mph - 0.05 in Rain Light Rain
5:55 AM 41.5 °F 35.4 °F 41.4 °F 99% 29.92 in 7.0 mi NNE 10.4 mph - 0.04 in Rain Light Rain
6:55 AM 41.4 °F 35.7 °F 41.2 °F 99% 29.93 in 5.0 mi NNE 9.2 mph - 0.04 in Rain Light Rain
7:55 AM 41.5 °F 36.4 °F 41.4 °F 99% 29.91 in 7.0 mi North 8.1 mph 17.3 mph 0.02 in Rain Light Rain
8:55 AM 42.3 °F 37.3 °F 41.9 °F 99% 29.89 in 6.0 mi North 8.1 mph - 0.07 in Rain Rain
9:55 AM 43.0 °F 36.4 °F 42.8 °F 99% 29.87 in 4.0 mi North 12.7 mph - 0.08 in Rain Rain
10:55 AM 43.3 °F 36.5 °F 43.2 °F 99% 29.84 in 4.0 mi NNE 13.8 mph - 0.05 in Rain Rain
11:55 AM 44.4 °F 37.5 °F 44.2 °F 99% 29.80 in 4.0 mi NNE 15.0 mph - 0.08 in Rain Rain
12:55 PM 45.5 °F 39.2 °F 45.3 °F 99% 29.76 in 7.0 mi NNE 13.8 mph - 0.04 in Rain Rain
1:55 PM 46.4 °F 42.4 °F 46.2 °F 99% 29.74 in 3.0 mi North 8.1 mph - 0.05 in Rain Light Rain
2:55 PM 47.1 °F - 46.9 °F 99% 29.69 in 2.0 mi NE 16.1 mph - 0.10 in Rain Heavy Rain
3:55 PM 47.8 °F - 47.7 °F 99% 29.69 in 3.0 mi NE 13.8 mph - 0.06 in Rain Light Rain
4:55 PM 48.2 °F - 48.0 °F 99% 29.70 in 3.0 mi NNE 8.1 mph - 0.07 in Rain Rain
5:55 PM 48.6 °F - 48.4 °F 99% 29.70 in 3.0 mi Variable 3.5 mph - 0.11 in Rain Light Rain
6:55 PM 49.6 °F - 49.6 °F 100% 29.70 in 3.0 mi NE 8.1 mph - 0.10 in Rain Light Rain
7:46 PM 50.0 °F - 50.0 °F 100% 29.68 in 5.0 mi SSE 6.9 mph 18.4 mph N/A Rain Light Rain
7:55 PM 50.2 °F - 49.8 °F 99% 29.70 in 6.0 mi SSE 4.6 mph - 0.15 in Rain Light Rain
9:55 PM 45.7 °F 39.8 °F 45.5 °F 99% 29.72 in 10.0 mi South 12.7 mph - 0.09 in Rain Light Rain
10:55 PM 43.9 °F 39.3 °F 43.7 °F 99% 29.71 in 7.0 mi South 8.1 mph - 0.13 in Rain Light Rain
11:55 PM 43.0 °F 38.8 °F 42.8 °F 99% 29.70 in 9.0 mi SSW 6.9 mph - 0.12 in Rain Light Rain